TimeCDT,TemperatureF,Dew PointF,Humidity,Sea Level PressureIn,VisibilityMPH,Wind Direction,Wind SpeedMPH,Gust SpeedMPH,PrecipitationIn,Events,Conditions,WindDirDegrees,DateUTC
12:15 AM,57.2,50.0,77,30.08,10.0,ENE,6.9,-,N/A,,Clear,60,2013-07-29 05:15:00
12:35 AM,57.2,48.2,72,30.08,10.0,ENE,5.8,-,N/A,,Clear,60,2013-07-29 05:35:00
12:55 AM,57.2,48.2,72,30.08,10.0,ENE,5.8,-,N/A,,Clear,60,2013-07-29 05:55:00
1:15 AM,57.2,48.2,72,30.08,10.0,ENE,4.6,-,N/A,,Clear,70,2013-07-29 06:15:00
1:35 AM,55.4,48.2,77,30.08,10.0,East,4.6,-,N/A,,Clear,80,2013-07-29 06:35:00
1:55 AM,53.6,50.0,88,30.08,10.0,SE,4.6,-,N/A,,Clear,130,2013-07-29 06:55:00
2:15 AM,53.6,48.2,82,30.09,10.0,East,5.8,-,N/A,,Clear,90,2013-07-29 07:15:00
2:55 AM,53.6,50.0,88,30.10,10.0,East,3.5,-,N/A,,Clear,100,2013-07-29 07:55:00
3:15 AM,53.6,50.0,88,30.10,10.0,East,3.5,-,N/A,,Clear,90,2013-07-29 08:15:00
3:55 AM,53.6,50.0,88,30.09,10.0,East,5.8,-,N/A,,Clear,80,2013-07-29 08:55:00
4:15 AM,53.6,48.2,82,30.09,10.0,Calm,Calm,-,N/A,,Clear,0,2013-07-29 09:15:00
4:55 AM,51.8,48.2,88,30.09,10.0,East,5.8,-,N/A,,Clear,90,2013-07-29 09:55:00
5:15 AM,51.8,48.2,88,30.09,10.0,East,5.8,-,N/A,,Clear,100,2013-07-29 10:15:00
5:35 AM,51.8,48.2,88,30.10,10.0,East,4.6,-,N/A,,Clear,90,2013-07-29 10:35:00
5:55 AM,51.8,48.2,88,30.11,9.0,East,5.8,-,N/A,,Clear,90,2013-07-29 10:55:00
6:15 AM,51.8,50.0,94,30.11,10.0,East,5.8,-,N/A,,Clear,90,2013-07-29 11:15:00
6:35 AM,53.6,50.0,88,30.11,10.0,East,5.8,-,N/A,,Clear,100,2013-07-29 11:35:00
6:55 AM,53.6,50.0,88,30.11,9.0,East,6.9,-,N/A,,Clear,100,2013-07-29 11:55:00
7:15 AM,55.4,51.8,88,30.11,10.0,East,4.6,-,N/A,,Clear,90,2013-07-29 12:15:00
7:35 AM,59.0,53.6,82,30.11,9.0,ESE,5.8,-,N/A,,Clear,120,2013-07-29 12:35:00
7:55 AM,59.0,53.6,82,30.11,10.0,ESE,8.1,-,N/A,,Clear,110,2013-07-29 12:55:00
8:15 AM,62.6,53.6,72,30.11,10.0,SE,8.1,-,N/A,,Mostly Cloudy,130,2013-07-29 13:15:00
8:35 AM,64.4,53.6,68,30.12,10.0,SE,6.9,-,N/A,,Overcast,140,2013-07-29 13:35:00
8:55 AM,66.2,53.6,64,30.12,10.0,SE,9.2,-,N/A,,Overcast,130,2013-07-29 13:55:00
9:15 AM,66.2,53.6,64,30.11,10.0,SE,10.4,-,N/A,,Overcast,140,2013-07-29 14:15:00
9:35 AM,64.4,53.6,68,30.11,10.0,SE,11.5,-,N/A,,Overcast,130,2013-07-29 14:35:00
9:55 AM,66.2,53.6,64,30.11,10.0,SE,10.4,-,N/A,,Overcast,130,2013-07-29 14:55:00
10:15 AM,66.2,53.6,64,30.11,10.0,SE,9.2,17.3,N/A,,Mostly Cloudy,130,2013-07-29 15:15:00
10:35 AM,66.2,53.6,64,30.11,10.0,SE,13.8,-,N/A,,Overcast,130,2013-07-29 15:35:00
10:55 AM,66.2,53.6,64,30.11,10.0,SE,13.8,-,N/A,,Overcast,130,2013-07-29 15:55:00
11:15 AM,68.0,53.6,60,30.12,10.0,SE,10.4,16.1,N/A,,Overcast,130,2013-07-29 16:15:00
11:35 AM,68.0,53.6,60,30.11,10.0,ESE,13.8,-,N/A,,Overcast,120,2013-07-29 16:35:00
11:55 AM,68.0,55.4,64,30.11,10.0,SE,11.5,18.4,N/A,,Overcast,130,2013-07-29 16:55:00
12:15 PM,68.0,55.4,64,30.11,10.0,SE,12.7,18.4,N/A,,Overcast,130,2013-07-29 17:15:00
12:35 PM,68.0,55.4,64,30.10,10.0,SE,15.0,-,N/A,,Overcast,140,2013-07-29 17:35:00
12:55 PM,68.0,55.4,64,30.10,10.0,SSE,16.1,-,N/A,,Mostly Cloudy,150,2013-07-29 17:55:00
1:15 PM,68.0,55.4,64,30.11,10.0,SSE,11.5,18.4,N/A,,Mostly Cloudy,150,2013-07-29 18:15:00
1:35 PM,68.0,57.2,68,30.10,7.0,SE,11.5,18.4,N/A,,Overcast,140,2013-07-29 18:35:00
1:55 PM,68.0,57.2,68,30.11,9.0,SSE,15.0,-,N/A,,Overcast,160,2013-07-29 18:55:00
2:15 PM,66.2,57.2,73,30.11,9.0,SSE,12.7,19.6,N/A,Rain,Light Rain,160,2013-07-29 19:15:00
2:35 PM,66.2,59.0,78,30.11,10.0,SSE,8.1,15.0,N/A,,Overcast,160,2013-07-29 19:35:00
2:55 PM,66.2,59.0,78,30.10,10.0,SSE,10.4,18.4,N/A,,Overcast,160,2013-07-29 19:55:00
3:15 PM,66.2,59.0,78,30.10,10.0,SSE,13.8,-,N/A,,Mostly Cloudy,150,2013-07-29 20:15:00
3:35 PM,66.2,60.8,83,30.10,8.0,SE,11.5,-,N/A,,Light Drizzle,140,2013-07-29 20:35:00
3:55 PM,64.4,60.8,88,30.10,10.0,SE,11.5,-,N/A,,Mostly Cloudy,130,2013-07-29 20:55:00
4:15 PM,64.4,60.8,88,30.10,9.0,SE,10.4,-,N/A,,Mostly Cloudy,130,2013-07-29 21:15:00
4:35 PM,66.2,60.8,83,30.10,10.0,SE,11.5,-,N/A,,Mostly Cloudy,130,2013-07-29 21:35:00
4:55 PM,66.2,60.8,83,30.10,10.0,ESE,11.5,-,N/A,,Overcast,120,2013-07-29 21:55:00
5:15 PM,66.2,60.8,83,30.08,10.0,SE,12.7,-,N/A,,Overcast,130,2013-07-29 22:15:00
5:35 PM,64.4,60.8,88,30.08,9.0,ESE,11.5,-,N/A,,Light Drizzle,120,2013-07-29 22:35:00
5:55 PM,64.4,62.6,94,30.08,9.0,ESE,9.2,-,N/A,,Partly Cloudy,120,2013-07-29 22:55:00
6:15 PM,64.4,62.6,94,30.08,9.0,SE,11.5,-,N/A,,Scattered Clouds,130,2013-07-29 23:15:00
6:35 PM,64.4,62.6,94,30.07,10.0,ESE,10.4,-,N/A,,Mostly Cloudy,120,2013-07-29 23:35:00
6:55 PM,64.4,60.8,88,30.07,10.0,ESE,12.7,-,N/A,,Overcast,120,2013-07-29 23:55:00
7:15 PM,64.4,60.8,88,30.07,10.0,ESE,10.4,17.3,N/A,,Overcast,120,2013-07-30 00:15:00
7:35 PM,64.4,60.8,88,30.07,-9999.0,ESE,8.1,-,N/A,,Overcast,110,2013-07-30 00:35:00
7:55 PM,64.4,60.8,88,30.07,10.0,ESE,12.7,-,N/A,,Overcast,120,2013-07-30 00:55:00
8:15 PM,62.6,60.8,94,30.07,10.0,ESE,10.4,-,N/A,,Overcast,110,2013-07-30 01:15:00
8:35 PM,62.6,60.8,94,30.07,10.0,ESE,8.1,-,N/A,,Overcast,120,2013-07-30 01:35:00
8:55 PM,62.6,60.8,94,30.07,10.0,SE,9.2,-,N/A,,Overcast,130,2013-07-30 01:55:00
9:15 PM,62.6,60.8,94,30.07,9.0,ESE,9.2,-,N/A,,Overcast,120,2013-07-30 02:15:00
9:35 PM,62.6,60.8,94,30.08,10.0,ESE,10.4,-,N/A,,Overcast,110,2013-07-30 02:35:00
9:55 PM,62.6,60.8,94,30.08,10.0,ESE,9.2,-,N/A,,Overcast,120,2013-07-30 02:55:00
10:15 PM,64.4,62.6,94,30.08,10.0,ESE,8.1,15.0,N/A,,Overcast,120,2013-07-30 03:15:00
10:35 PM,64.4,62.6,94,30.09,10.0,ESE,6.9,13.8,N/A,,Overcast,110,2013-07-30 03:35:00
10:55 PM,64.4,62.6,94,30.08,10.0,ESE,9.2,-,N/A,,Overcast,110,2013-07-30 03:55:00
11:15 PM,64.4,62.6,94,30.07,10.0,East,9.2,-,N/A,,Overcast,100,2013-07-30 04:15:00
11:55 PM,64.4,62.6,94,30.08,10.0,ESE,8.1,-,N/A,,Overcast,110,2013-07-30 04:55:00